RH
85 90 95 96 97 95 97 97 97 76 62 63 31 14 28 49 38 46 54 22 28 27 28 20 12 10 22 24 22 26 39 43 37 30 24 16 16 12 9 7 6 6 7 29 27
82 94 96 96 97 97 96 96 80 55 55 51 57 25 25 52 60 71 16 26 24 17 20 20 13 10 33 27 25 27 38 38 27 24 22 17 16 15 14 12 9 8 9 25 26
88 95 97 95 86 90 93 86 50 45 52 66 59 56 30 63 71 33 22 28 23 18 21 25 22 11 19 27 27 26 29 24 22 22 21 21 18 15 17 17 11 12 13 12 18
74 82 75 78 85 86 89 56 34 21 32 63 58 56 38 80 26 23 14 20 16 16 32 25 24 26 16 20 19 24 22 21 19 17 19 19 17 18 18 19 17 14 12 12 15
71 64 64 83 84 80 60 37 38 24 22 18 40 60 65 64 58 23 17 9 10 21 36 32 31 29 28 17 16 16 16 15 15 15 15 16 16 17 18 16 14 14 14 16 16
61 58 69 70 54 38 29 28 21 26 32 31 38 65 91 54 13 11 11 13 13 15 27 30 26 21 23 22 22 16 15 14 13 14 13 15 17 17 16 14 13 13 14 16 16
62 67 71 72 44 33 26 20 21 34 39 36 59 91 71 50 14 19 16 14 14 13 14 10 10 15 21 24 21 19 25 21 17 16 16 14 16 17 15 15 14 13 14 14 13
69 73 68 51 38 26 19 19 24 34 37 45 67 86 81 28 24 21 14 14 15 14 15 14 11 14 16 20 21 26 28 34 22 18 16 17 22 14 16 16 15 15 15 14 14
82 72 60 45 34 18 26 35 32 37 37 48 78 86 72 25 23 13 14 14 12 18 19 18 17 17 16 24 33 34 41 36 29 20 19 18 21 16 16 15 16 16 16 15 14
82 73 60 39 24 18 37 36 30 51 46 72 66 75 59 28 11 12 13 14 15 14 14 19 30 34 22 27 39 40 43 36 33 24 20 20 18 13 15 14 14 16 16 16 17
73 60 46 33 18 28 41 44 37 57 51 49 44 40 28 17 9 11 13 16 19 17 21 19 35 47 30 24 22 24 28 25 20 16 20 18 17 13 13 12 12 15 14 13 17
68 51 30 21 19 39 41 40 34 40 56 31 27 23 18 14 16 14 14 21 21 27 18 22 25 22 28 24 22 22 24 23 18 16 18 18 19 17 14 13 11 13 12 11 11
64 42 29 24 30 40 40 31 35 46 63 34 22 20 18 15 17 21 18 21 26 28 28 33 22 17 19 25 29 27 25 20 21 20 20 23 23 19 14 12 10 10 8 9 10
53 32 36 31 63 44 36 34 38 52 87 34 20 17 22 22 25 14 15 18 22 25 22 28 22 24 25 25 18 20 20 20 18 21 36 22 37 22 15 13 12 11 11 12 14
43 36 39 57 56 47 42 38 38 54 88 24 22 19 18 20 19 14 11 12 16 15 13 16 16 22 27 24 21 25 16 28 22 23 32 31 36 25 20 19 16 16 13 12 18
47 41 45 56 61 51 43 43 54 88 83 14 21 22 19 19 18 14 14 12 12 14 11 12 15 27 33 30 22 18 23 38 49 39 51 36 36 32 25 20 18 36 46 49 53
50 42 50 56 62 56 47 58 86 93 12 21 22 20 21 21 19 17 26 29 30 35 42 38 36 30 28 34 32 35 32 77 85 74 69 33 38 34 23 18 44 60 58 60 62
42 49 55 60 47 58 59 73 77 28 25 21 23 23 25 20 20 21 25 33 24 46 71 72 73 42 35 43 58 40 39 87 79 78 60 35 44 31 19 23 78 58 60 67 72
47 59 68 63 50 64 78 94 49 27 23 26 24 27 26 26 26 27 32 29 28 59 76 77 53 38 37 43 44 66 73 52 92 66 89 68 51 47 61 63 73 65 70 74 72
73 68 56 42 56 68 91 69 31 22 21 22 32 28 39 33 35 43 46 34 44 51 57 70 83 38 30 52 56 54 52 84 94 94 88 80 84 98 95 92 86 73 74 74 73
69 75 61 53 62 81 94 59 27 19 20 25 30 33 35 39 39 46 41 39 48 50 50 56 71 60 54 63 70 84 81 78 76 66 96 95 99 98 96 85 81 71 70 72 74
76 92 51 56 88 81 86 32 25 23 24 27 25 34 41 42 45 46 50 38 31 51 61 82 96 94 63 41 61 60 72 70 90 69 60 85 98 83 88 81 66 62 62 65 68
86 69 44 58 97 89 34 27 23 26 28 32 42 44 41 53 66 57 60 45 66 66 65 88 89 95 68 62 57 64 53 53 66 81 77 91 99 89 76 67 64 68 68 69 70
94 89 65 69 67 57 60 49 40 35 38 40 43 40 49 61 54 71 65 52 60 72 57 93 95 84 79 58 61 86 69 52 65 82 95 98 98 80 77 77 76 74 74 73 72
95 87 57 89 75 60 55 59 57 52 46 46 48 57 61 74 71 67 62 72 63 60 72 100 96 88 81 67 72 76 79 84 93 100 99 96 88 88 86 80 80 74 72 73 75
92 77 40 84 66 65 65 62 54 53 63 62 72 61 65 78 69 96 84 78 91 90 100 100 97 99 98 89 88 99 86 92 95 88 90 79 82 75 72 74 78 79 75 78 79
53 41 67 58 54 81 83 61 55 72 61 48 68 79 69 66 83 78 73 74 77 85 88 100 100 95 97 84 81 96 85 75 81 77 71 92 84 74 83 84 90 86 82 84 83
Wind_Speed
9 9 10 11 13 15 17 19 20 20 20 20 20 20 22 24 27 23 9 12 5 13 16 12 12 14 11 4 3 4 10 17 14 15 18 15 20 20 6 6 2 2 2 11 20
9 10 11 11 14 16 17 19 20 21 21 20 21 20 21 23 24 17 17 13 18 12 10 7 6 10 5 5 3 4 9 14 9 12 13 16 13 12 11 13 5 2 3 19 23
9 10 11 13 15 17 18 19 21 21 21 21 19 20 19 19 6 5 2 10 13 10 10 10 14 6 8 7 9 7 16 11 15 16 16 12 19 8 12 9 7 5 7 6 9
10 11 13 14 15 17 18 20 21 20 21 22 20 19 16 4 0 1 6 7 6 7 3 5 6 5 4 8 9 15 17 19 19 21 23 22 12 15 11 9 10 9 6 5 7
12 12 13 14 15 18 19 21 21 21 22 20 21 15 7 3 9 11 6 6 4 3 6 9 11 7 10 7 13 17 16 16 16 18 19 16 19 18 20 8 14 13 10 9 7
12 11 13 15 18 19 19 21 20 22 23 22 14 7 4 4 8 8 3 5 7 12 15 14 8 10 10 12 11 8 14 16 18 18 11 13 13 7 12 9 18 22 15 11 11
11 12 14 16 18 19 22 21 20 20 22 13 6 3 6 16 9 12 10 12 10 13 6 19 17 6 9 12 10 14 14 17 19 9 9 8 18 15 7 9 18 23 20 16 18
11 12 14 17 18 19 20 21 21 19 16 7 4 4 8 10 7 13 12 16 18 19 18 16 23 9 4 8 12 15 8 9 12 15 17 6 22 19 9 14 23 20 17 19 24
12 14 15 16 17 18 19 23 23 19 12 5 3 5 7 6 7 13 4 8 18 11 10 12 10 8 5 5 9 7 15 16 20 11 15 10 20 15 10 20 21 19 19 19 22
12 14 16 15 16 15 21 27 13 8 6 7 10 4 8 5 6 9 14 14 7 6 8 6 5 7 2 6 16 4 10 14 18 22 15 18 22 18 10 12 11 11 14 15 11
12 12 14 16 14 12 22 9 5 1 7 8 10 6 7 17 22 7 14 13 5 3 6 8 10 14 9 14 19 17 19 21 19 13 13 18 11 16 12 15 18 13 9 9 11
11 12 10 11 9 9 9 2 4 3 10 12 21 18 26 17 9 10 19 4 5 6 7 6 20 14 12 17 19 22 25 25 22 21 17 14 12 9 9 9 14 11 10 11 9
10 11 8 9 5 4 3 8 7 7 3 11 11 10 4 10 6 8 5 5 7 9 8 13 11 12 16 20 23 22 20 19 19 16 8 8 15 9 16 15 24 20 17 21 18
8 6 8 6 6 6 3 8 7 5 3 4 4 2 5 2 3 8 9 5 11 15 12 13 12 17 20 21 19 21 17 21 21 19 8 3 15 14 11 21 24 24 28 19 11
5 4 6 2 8 6 7 6 7 0 3 8 5 3 3 5 6 3 24 11 13 15 13 20 15 19 23 23 20 23 19 19 21 17 3 9 6 16 11 19 22 20 11 18 8
3 3 6 2 1 8 10 5 4 1 6 4 6 2 4 9 13 14 18 15 15 17 18 19 17 6 10 20 24 23 18 7 15 3 9 14 9 13 15 14 13 6 12 13 13
3 3 4 3 2 7 4 2 2 3 2 6 9 9 13 13 14 15 8 8 6 6 8 11 13 14 18 23 22 16 16 4 4 3 11 9 11 19 13 20 1 3 16 15 16
2 3 2 2 4 6 4 1 3 3 6 8 11 11 6 9 8 14 13 9 12 6 4 5 11 2 9 13 15 18 10 5 5 5 8 12 9 10 11 5 16 10 17 18 18
3 4 5 3 3 3 2 2 3 6 9 11 11 6 7 18 14 13 14 13 8 4 1 4 10 19 20 15 17 6 6 18 11 7 3 4 7 7 21 15 16 17 18 16 16
2 3 5 1 2 3 3 3 3 9 8 7 4 5 11 12 10 9 7 9 14 5 4 4 14 7 12 14 7 1 3 2 6 2 4 1 3 4 12 17 6 17 17 17 18
2 2 1 1 3 2 2 2 4 8 3 3 7 9 10 11 8 8 6 14 9 5 4 6 6 13 13 4 7 2 1 6 8 4 2 2 4 3 9 12 16 18 18 17 17
3 3 5 2 2 3 2 2 1 2 5 7 4 7 7 9 13 12 13 11 10 3 5 6 5 7 17 18 7 13 10 12 3 2 4 5 2 7 8 6 17 19 18 16 18
1 3 4 2 1 2 3 3 2 3 5 7 5 8 13 10 9 6 11 9 8 3 4 3 3 5 9 2 3 4 9 6 4 6 3 2 2 8 11 19 19 19 17 19 19
1 2 1 1 2 2 4 4 6 8 7 10 12 10 8 10 10 7 11 6 3 5 10 2 6 10 7 6 8 6 17 11 5 4 1 4 9 16 17 18 20 20 18 16 16
2 2 1 2 1 6 2 1 5 4 3 7 4 10 11 5 14 6 9 6 5 9 2 3 7 12 19 21 15 15 20 15 10 4 3 11 20 13 16 16 17 15 16 18 19
3 1 2 3 5 3 1 3 5 3 2 6 6 11 11 11 13 12 10 7 6 4 6 3 5 7 20 18 15 6 12 19 12 15 10 12 15 11 14 14 16 16 17 18 17
4 1 3 5 5 4 4 5 4 6 4 5 7 11 11 10 9 13 11 13 15 14 12 4 3 4 8 20 15 11 17 20 19 20 13 14 8 8 12 15 16 16 16 16 16
Wind_Direction
297 300 301 305 312 316 317 315 313 312 315 317 318 320 324 328 320 311 234 236 257 253 270 285 278 267 239 245 252 246 238 249 251 256 275 288 288 293 279 252 231 339 87 149 133
289 302 300 303 308 308 306 309 309 311 312 314 317 322 329 331 321 274 276 234 242 258 277 248 258 248 221 220 239 191 242 245 236 266 282 281 283 306 327 313 296 349 56 140 148
285 293 296 302 305 308 309 308 309 311 313 315 318 324 330 336 295 262 339 219 246 261 258 264 282 239 228 216 228 234 250 271 275 278 269 275 296 291 311 314 261 302 298 190 173
277 285 295 302 308 309 307 309 311 311 312 314 319 325 328 328 341 343 171 184 237 259 243 270 263 252 235 244 233 243 240 237 248 254 264 270 276 282 283 279 296 302 286 288 267
274 287 296 301 305 306 307 309 310 312 313 315 320 324 340 239 250 266 223 256 282 238 241 245 261 249 236 236 243 253 251 255 257 249 253 259 260 270 275 314 307 302 312 300 274
273 284 294 298 304 307 308 309 311 313 314 312 315 323 260 269 250 189 203 256 271 244 244 253 261 276 277 260 246 263 263 262 259 262 261 265 265 268 275 309 296 293 284 285 285
272 284 294 300 305 308 310 308 308 311 314 313 304 262 258 244 250 296 258 229 229 264 285 296 303 327 318 305 280 269 285 289 273 264 264 265 276 252 249 269 268 271 282 281 271
268 282 292 302 308 310 311 306 304 304 306 297 279 224 255 273 305 270 275 255 250 244 239 263 286 291 264 308 304 290 279 270 267 250 262 233 263 262 239 239 252 256 261 265 264
272 287 296 304 309 315 310 307 299 292 280 254 271 202 258 293 224 248 254 329 334 321 300 266 246 255 322 315 293 240 255 254 278 250 262 241 261 264 245 245 244 247 251 248 263
268 290 299 306 315 317 315 319 301 269 262 232 254 236 252 229 23 325 316 306 279 313 332 304 245 237 192 200 237 256 234 255 252 259 251 254 255 263 256 262 238 243 255 252 249
267 283 300 311 319 321 333 357 359 319 240 216 190 222 285 304 325 313 292 250 260 203 251 273 256 231 225 224 246 261 268 276 269 278 246 246 259 268 248 266 267 259 256 273 280
268 282 298 311 319 327 351 23 66 245 302 248 256 271 277 269 274 294 269 224 244 246 235 252 255 273 241 239 246 246 249 258 271 275 275 283 280 268 271 262 269 252 263 260 267
269 293 305 310 305 332 81 41 9 5 272 296 241 228 247 199 236 258 291 272 247 265 255 252 267 283 266 260 252 249 257 266 267 267 247 299 292 291 276 275 273 273 256 262 259
268 293 309 328 304 334 88 21 4 5 346 236 170 166 112 216 259 270 266 266 271 266 272 269 287 289 287 280 274 276 258 260 267 269 251 211 276 267 267 255 266 265 261 234 231
251 288 305 358 316 9 12 347 340 322 342 150 102 122 43 158 341 293 333 316 298 286 279 268 266 267 270 277 289 277 279 299 267 262 252 248 271 276 258 274 279 290 229 228 220
255 296 302 36 300 350 328 17 357 70 248 131 134 98 13 348 332 308 290 267 265 282 278 274 277 252 274 289 281 283 287 217 279 294 247 241 234 267 249 250 295 145 85 76 55
245 291 283 353 21 332 359 41 77 213 220 36 13 2 336 316 289 288 343 335 314 311 299 314 297 294 287 288 282 282 265 258 240 210 247 211 232 242 263 250 99 60 73 57 48
234 256 152 321 331 0 337 111 199 346 19 24 357 322 299 317 345 345 338 317 316 4 337 317 313 2 326 313 283 262 214 201 207 214 256 215 250 245 248 216 103 33 73 53 36
201 138 268 202 352 20 56 108 354 26 19 357 354 353 349 347 337 338 332 301 332 57 69 306 273 320 287 310 286 194 184 199 268 309 232 232 273 35 358 50 18 89 64 54 39
99 235 157 24 30 62 84 258 55 51 17 4 347 333 321 317 317 331 317 305 343 51 97 291 301 293 306 355 292 236 105 131 232 274 248 181 281 81 33 19 341 55 57 48 37
189 141 180 70 54 57 142 242 37 11 29 331 299 299 301 307 302 293 286 316 289 352 9 290 247 287 299 212 239 41 176 213 217 215 280 304 79 66 33 18 59 63 55 46 39
253 99 171 129 44 239 166 34 34 308 269 267 266 284 302 313 305 306 296 286 309 90 309 28 273 277 280 269 269 249 211 213 120 257 233 110 11 303 347 54 52 54 50 52 42
218 129 160 169 95 282 85 267 189 278 340 326 325 336 324 315 308 292 298 307 53 28 357 8 275 318 313 238 235 273 208 205 139 36 316 65 101 334 32 41 39 38 34 36 28
1 89 24 85 200 347 38 360 355 356 336 356 319 295 326 305 300 285 277 295 13 197 268 248 223 224 239 289 341 321 318 191 120 156 34 52 64 41 37 30 24 22 23 23 24
31 200 179 197 42 91 87 276 289 327 15 313 306 339 328 301 311 275 325 322 307 299 281 219 260 227 241 251 274 279 286 68 63 57 305 92 57 40 35 29 27 20 20 19 18
112 70 21 116 121 125 186 280 292 338 357 305 305 319 315 294 287 307 330 328 262 313 336 234 286 291 274 211 225 237 88 85 49 31 68 68 52 52 43 37 33 25 22 20 16
338 109 100 183 187 135 198 227 243 132 270 297 317 307 294 288 313 283 268 258 253 274 287 256 276 309 94 114 148 81 97 91 80 41 41 45 3 39 63 52 35 27 25 19 15